User: anonymous   Login
Location: Caltech
(34.1382°N, 118.1253°W)
Time: 23:55:20
(UTC-08:00)
Language:

Cosmos 676 Rocket - Orbit

View from above orbital plane
View from above orbital plane
View from above satellite
View from above satellite

Ground track
Ground track

The orbit data is extracted from the following two-line orbital elements,

1 07434U 74071B   14326.81829257  .00000373  00000-0  13608-3 0  3667
2 07434 074.0466 135.1558 0021914 277.5528 183.0313 14.36334390102118
Epoch (UTC): 22 November 2014 19:38:20
Eccentricity: 0.0021914
inclination: 74.0466°
perigee height: 755 km
apogee height: 786 km
right ascension of ascending node: 135.1558°
argument of perigee: 277.5528°
revolutions per day: 14.36334390
mean anomaly at epoch: 183.0313°
orbit number at epoch: 10211

The dashed part of the orbit path shows where the satellite is in the earth's shadow,  

DLR